This demonstration page uses our WeatherBlox Daily Observations layout. Learn more.

Left ArrowRight Arrow

36.17497, -115.13722

Hourly Observations for February 9, 2020

Temp ( °F °C ) Dew Point ( °F °C ) Humidity (%) Winds ( mph kmh ) Pressure ( in mb ) Visibility ( mi km ) Precip ( " mm )
12:53 am 00:53 Clear 52 11.1 25 -3.9 35 35 NNW 9 15 29.77 1008 10 16.0934 0 0
1:53 am 01:53 Clear 54 12.2 22 -5.6 29 29 NNW 8 13 29.78 1008 10 16.0934 0 0
2:53 am 02:53 Clear 54 12.2 20 -6.7 26 26 NW 14 22 29.79 1009 10 16.0934 0 0
3:53 am 03:53 Clear 53 11.7 19 -7.2 26 26 NNW 24 39 29.8 1009 10 16.0934 0 0
4:53 am 04:53 Clear 52 11.1 18 -7.8 26 26 NNW 17 28 29.83 1010 10 16.0934 0 0
5:53 am 05:53 Clear 51 10.6 17 -8.3 26 26 N 16 26 29.86 1011 10 16.0934 0 0
6:53 am 06:53 Mostly Sunny 51 10.6 17 -8.3 26 26 NNW 13 20 29.88 1012 10 16.0934 0 0
7:53 am 07:53 Cloudy 53 11.7 17 -8.3 24 24 NNW 15 24 29.89 1012 10 16.0934 0 0
8:53 am 08:53 Cloudy 55 12.8 19 -7.2 24 24 NW 16 26 29.91 1013 10 16.0934 0 0
9:53 am 09:53 Cloudy 54 12.2 21 -6.1 28 28 NW 15 24 29.92 1013 10 16.0934 0 0
10:53 am 10:53 Cloudy 54 12.2 23 -5 30 30 NW 24 39 29.93 1014 10 16.0934 0 0
11:53 am 11:53 Mostly Cloudy 55 12.8 21 -6.1 26 26 NW 24 39 29.92 1013 10 16.0934 0 0
12:53 pm 12:53 Cloudy 56 13.3 22 -5.6 27 27 NNW 24 39 29.9 1013 10 16.0934 0 0
1:53 pm 13:53 Mostly Cloudy 53 11.7 24 -4.4 32 32 NW 25 41 29.9 1013 10 16.0934 0 0
2:53 pm 14:53 Mostly Cloudy 53 11.7 25 -3.9 34 34 NW 21 33 29.91 1013 10 16.0934 0 0
3:53 pm 15:53 Cloudy 51 10.6 27 -2.8 39 39 NW 18 30 29.92 1013 10 16.0934 0 0
4:53 pm 16:53 Mostly Cloudy 50 10 28 -2.2 43 43 NNW 14 22 29.96 1015 10 16.0934 0 0
5:53 pm 17:53 Cloudy with Light Rain 50 10 28 -2.2 43 43 NNW 17 28 29.97 1015 10 16.0934 0.001 0.001
6:53 pm 18:53 Partly Cloudy 48 8.9 30 -1.1 50 50 NNW 21 33 29.97 1015 10 16.0934 0.001 0.001
7:53 pm 19:53 Cloudy 49 9.4 29 -1.7 46 46 NW 22 35 29.99 1016 10 16.0934 0 0
8:53 pm 20:53 Cloudy 47 8.3 32 0 56 56 NW 24 39 30.01 1016 10 16.0934 0 0
9:53 pm 21:53 Cloudy 49 9.4 30 -1.1 48 48 N 9 15 30.03 1017 10 16.0934 0 0
10:53 pm 22:53 Cloudy with Light Rain 47 8.3 32 0 56 56 N 15 24 30.04 1017 10 16.0934 0.001 0.001
11:53 pm 23:53 Cloudy with Light Rain 46 7.8 33 0.6 61 61 NNW 12 19 30.06 1018 10 16.0934 0.001 0.001

Powered by AerisWeather